Location: Brad
(46.1333°N, 22.7833°E)
Time: 09:50:52
(UTC+00:00)

SL-16 R/B - Pass Details

Date: 03 February 2023
Orbit: 842 x 846 km, 71.0° (Epoch: 30 March)

Event Time Altitude Azimuth Distance (km) Brightness Sun altitude
Rises 16:47:18 0° 209° (SSW) 3,386 5.9 -12.6°
Reaches altitude 10° 16:49:44 10° 210° (SSW) 2,455 5.2 -13.0°
Maximum altitude 16:55:23 78° 297° (WNW) 866 2.3 -13.9°
Drops below altitude 10° 17:01:04 10° 24° (NNE) 2,474 4.3 -14.9°
Enters shadow 17:02:44 - 26° (NNE) 3,108 4.8 -15.2°
